Location: Casteau
(50.5142°N, 4.0161°E)
Time: 04:40:24
(UTC+00:00)

Vanguard 1 Rocket - Pass Details

Date: 29 July 2021
Orbit: 650 x 4226 km, 34.3° (Epoch: 21 September)

Event Time Altitude Azimuth Distance (km) Brightness Sun altitude
Rises 12:54:29 0° 251° (WSW) 6,457 12.1 55.6°
Reaches altitude 10° 13:00:12 10° 242° (WSW) 4,779 11.7 55.2°
Maximum altitude 13:09:33 27° 191° (S) 2,496 10.8 54.4°
Drops below altitude 10° 13:15:21 10° 135° (SE) 2,871 10.2 53.9°
Sets 13:17:51 0° 122° (ESE) 3,540 10.4 53.7°
